N46650 CYKF-CYKF

Flight info

Callsign N46650
Flight time 0h 8m
Altitude 4500
Route CIRCUITS
Aircraft C172

Departure

Time 2026-05-06 02:13
Airport Region of Waterloo International Airport (CYKF)

Arrival

Time 2026-05-06 02:21
Airport Region of Waterloo International Airport (CYKF)
Time Latitude Longitude Altitude Speed Heading
2026-05-06 02:09 43.45666 -80.38607 1029 ft 0 kts 21°
2026-05-06 02:10 43.45673 -80.38603 1029 ft 6 kts 23°
2026-05-06 02:10 43.45744 -80.38620 1030 ft 15 kts 274°
2026-05-06 02:10 43.45696 -80.38774 1030 ft 19 kts 248°
2026-05-06 02:11 43.45690 -80.38792 1029 ft 2 kts 245°
2026-05-06 02:11 43.45680 -80.38872 1029 ft 19 kts 295°
2026-05-06 02:11 43.45714 -80.38910 1030 ft 0 kts 341°
2026-05-06 02:12 43.45756 -80.38933 1033 ft 21 kts 339°
2026-05-06 02:12 43.45891 -80.38703 1031 ft 63 kts 66°
2026-05-06 02:13 43.46139 -80.37840 1117 ft 122 kts 71°
2026-05-06 02:13 43.46571 -80.36677 1405 ft 144 kts 59°
2026-05-06 02:13 43.47118 -80.35518 1655 ft 144 kts 54°
2026-05-06 02:13 43.48026 -80.35310 1857 ft 150 kts 336°
2026-05-06 02:14 43.48769 -80.36252 2011 ft 150 kts 278°
2026-05-06 02:14 43.48445 -80.37628 2065 ft 157 kts 244°
2026-05-06 02:14 43.47941 -80.38996 2123 ft 159 kts 240°
2026-05-06 02:14 43.47361 -80.40329 2122 ft 164 kts 236°
2026-05-06 02:15 43.46722 -80.41581 2179 ft 156 kts 233°
2026-05-06 02:15 43.46087 -80.42701 2170 ft 142 kts 230°
2026-05-06 02:15 43.45262 -80.43030 2033 ft 137 kts 152°
2026-05-06 02:15 43.44561 -80.42145 1930 ft 135 kts 134°
2026-05-06 02:16 43.44428 -80.41002 1634 ft 148 kts 50°
2026-05-06 02:16 43.45166 -80.40144 1377 ft 129 kts 45°
2026-05-06 02:16 43.45697 -80.39236 1147 ft 116 kts 60°
2026-05-06 02:16 43.46034 -80.38308 1030 ft 100 kts 67°
2026-05-06 02:17 43.46346 -80.37303 1168 ft 131 kts 69°
2026-05-06 02:17 43.46751 -80.36087 1476 ft 155 kts 64°
2026-05-06 02:17 43.47338 -80.34768 1885 ft 167 kts 34°
2026-05-06 02:17 43.48546 -80.34741 2107 ft 199 kts 340°
2026-05-06 02:18 43.49609 -80.35785 2364 ft 181 kts 278°
2026-05-06 02:18 43.49174 -80.37315 2487 ft 183 kts 237°
2026-05-06 02:18 43.48401 -80.38982 2477 ft 232 kts 237°
2026-05-06 02:18 43.47545 -80.40801 2500 ft 215 kts 237°
2026-05-06 02:19 43.46787 -80.42419 2485 ft 184 kts 237°
2026-05-06 02:19 43.46145 -80.43740 2503 ft 143 kts 230°
2026-05-06 02:19 43.45314 -80.44051 2262 ft 126 kts 155°
2026-05-06 02:19 43.44616 -80.43424 2050 ft 114 kts 147°
2026-05-06 02:20 43.44254 -80.41755 1599 ft 120 kts 51°
2026-05-06 02:20 43.44811 -80.40897 1399 ft 119 kts 50°
2026-05-06 02:20 43.45294 -80.40087 1237 ft 102 kts 57°
2026-05-06 02:21 43.45673 -80.39290 1112 ft 94 kts 64°
2026-05-06 02:21 43.45944 -80.38553 1033 ft 76 kts 67°
2026-05-06 02:21 43.46128 -80.37981 1029 ft 57 kts 64°
2026-05-06 02:21 43.46152 -80.37689 1030 ft 13 kts 162°
2026-05-06 02:22 43.46078 -80.37717 1030 ft 11 kts 201°
2026-05-06 02:22 43.46043 -80.37758 1030 ft 0 kts 234°
2026-05-06 02:23 43.46004 -80.37860 1030 ft 27 kts 241°
2026-05-06 02:23 43.45910 -80.38126 1029 ft 35 kts 249°
2026-05-06 02:23 43.45859 -80.38292 1029 ft 0 kts 247°
2026-05-06 02:24 43.45846 -80.38335 1029 ft 14 kts 248°
2026-05-06 02:24 43.45773 -80.38551 1030 ft 32 kts 241°
2026-05-06 02:24 43.45695 -80.38607 1029 ft 8 kts 70°
2026-05-06 02:24 43.45672 -80.38595 1029 ft 3 kts 205°
2026-05-06 02:25 43.45665 -80.38599 1029 ft 0 kts 205°